Waarnemingen

Advertentie
Mijn weer
Bournemouth Airport, Groot Brittannië (3862): temperatuur & dauwpunt: 12.12.2017 20:00:00 - 18.12.2017 20:00:00 (GMT)Bournemouth Airport, Groot Brittannië (3862): temperatuur -20cm & temperatuur -100cm: 12.12.2017 20:00:00 - 18.12.2017 20:00:00 (GMT)Bournemouth Airport, Groot Brittannië (3862): windsnelheid & windstoten: 12.12.2017 20:00:00 - 18.12.2017 20:00:00 (GMT)Bournemouth Airport, Groot Brittannië (3862): windrichting: 12.12.2017 20:00:00 - 18.12.2017 20:00:00 (GMT)Bournemouth Airport, Groot Brittannië (3862): luchtdruk: 12.12.2017 20:00:00 - 18.12.2017 20:00:00 (GMT)Bournemouth Airport, Groot Brittannië (3862): zicht: 12.12.2017 20:00:00 - 18.12.2017 20:00:00 (GMT)Bournemouth Airport, Groot Brittannië (3862): Zonneschijnduur: 12.12.2017 20:00:00 - 18.12.2017 20:00:00 (GMT)Bournemouth Airport, Groot Brittannië (3862): neerslag: 12.12.2017 20:00:00 - 18.12.2017 20:00:00 (GMT)
Datum & Tijd tt [°C] td [°C] tt -20cm [°C] tt -100cm [°C] ff [km/u] ff [kn] fx [km/u] fx [kn] dd ppp [hPa] vv [km] sd [min] rr [mm]
18.12.2017 20:00:00 0,3 0,0 - - 5 3 - - NNW 1033,8 3,0 0 0,0
18.12.2017 19:00:00 0,1 -0,4 - - 2 1 - - NW 1033,3 5 0 0,0
18.12.2017 18:00:00 0,8 0,1 - - 8 4 - - N 1032,6 10 0 0,0
18.12.2017 17:00:00 3,2 1,7 - - 5 3 - - N 1032,1 10 0 0,0
18.12.2017 16:00:00 5,6 2,9 - - 5 3 - - NNW 1031,6 10 48 0,0
18.12.2017 15:00:00 7,5 3,5 - - 8 4 - - NNW 1031,3 10 60 0,0
18.12.2017 14:00:00 7,9 3,7 - - 8 4 - - N 1031,0 10 60 0,0
18.12.2017 13:00:00 7,7 3,9 - - 8 4 - - NNO 1030,9 10 60 0,0
18.12.2017 12:00:00 6,8 3,9 - - 9 5 - - NNO 1030,5 10 60 0,0
18.12.2017 11:00:00 6,0 3,8 - - 13 7 - - NNO 1030,3 10 60 0,0
18.12.2017 10:00:00 2,7 2,3 - - 0 0 - - N 1029,8 10 42 0,0
18.12.2017 09:00:00 -0,2 -0,9 5,7 7,5 4 2 - - NW 1029,3 10 0 0,0
18.12.2017 08:00:00 1,4 0,6 - - 0 0 - - N 1028,0 10 0 0,0
18.12.2017 07:00:00 2,9 1,1 - - 8 4 - - N 1027,6 10 0 0,0
18.12.2017 06:00:00 3,0 0,9 - - 5 3 - - NNO 1026,5 10 0 0,0
18.12.2017 05:00:00 5,1 2,4 - - 18 10 - - N 1025,7 20 0 0,0
18.12.2017 04:00:00 5,5 2,6 - - 15 8 - - N 1025,0 22 0 0,0
18.12.2017 03:00:00 7,1 2,8 - - 21 11 - - NNO 1024,5 22 0 0,0
18.12.2017 02:00:00 7,2 6,5 - - 13 7 - - NNW 1023,6 6 0 0,0
18.12.2017 01:00:00 9,6 8,8 - - 13 7 - - NW 1023,0 13 0 0,0
18.12.2017 00:00:00 10,5 9,4 - - 16 9 - - WNW 1022,7 17 - 0,0
17.12.2017 23:00:00 10,7 9,8 - - 15 8 - - WNW 1022,5 10 0 0,0
17.12.2017 22:00:00 10,5 9,4 - - 15 8 - - W 1021,9 10 0 0,0
17.12.2017 21:00:00 10,2 9,5 - - 18 10 - - W 1022,0 10 0 0,0
17.12.2017 20:00:00 10,3 9,2 - - 18 10 - - W 1021,7 10 0 0,0
17.12.2017 19:00:00 10,3 9,1 - - 26 14 - - W 1021,2 10 0 0,0
17.12.2017 18:00:00 10,3 8,8 - - 22 12 - - W 1021,3 10 0 0,0
17.12.2017 17:00:00 10,1 8,6 - - 26 14 - - WZW 1021,2 10 0 0,0
17.12.2017 16:00:00 9,7 8,5 - - 16 9 - - WZW 1021,9 10 0 0,0
17.12.2017 15:00:00 9,5 8,5 - - 18 10 - - WZW 1022,7 10 0 0,0
17.12.2017 14:00:00 9,2 8,5 - - 16 9 - - WZW 1023,0 10 0 0,2
17.12.2017 13:00:00 8,4 8,1 - - 8 4 - - WZW 1024,2 6 0 0,8
17.12.2017 12:00:00 7,8 7,7 - - 8 4 - - WZW 1024,5 10 0 0,0
17.12.2017 11:00:00 4,6 4,6 - - 2 1 - - Z 1024,6 8 0 0,2
17.12.2017 10:00:00 1,8 1,8 - - 4 2 - - O 1025,4 7 0 0,0
17.12.2017 09:00:00 0,0 -0,1 5,0 7,7 2 1 - - NNO 1025,5 8 0 0,0
17.12.2017 08:00:00 -1,1 -1,2 - - 4 2 - - O 1025,1 6 0 0,0
17.12.2017 07:00:00 -2,4 -2,6 - - 2 1 - - NO 1025,4 1,4 0 0,0
17.12.2017 06:00:00 -2,0 -2,2 - - 4 2 - - ZZO 1025,4 1,2 0 0,0
17.12.2017 05:00:00 -2,0 -2,2 - - 2 1 - - ZO 1025,0 4,8 0 0,0
17.12.2017 04:00:00 -2,0 -2,3 - - 0 0 - - N 1025,1 0,6 0 0,0
17.12.2017 03:00:00 -1,2 -1,6 - - 4 2 - - ZW 1025,2 2,4 0 0,0
17.12.2017 02:00:00 0,3 0,1 - - 8 4 - - NNW 1024,6 12 0 0,0
17.12.2017 01:00:00 -0,1 -0,5 - - 8 4 - - N 1024,3 8 0 0,0
17.12.2017 00:00:00 0,1 -0,8 - - 5 3 - - N 1024,5 13 - -
16.12.2017 23:00:00 2,8 1,9 - - 15 8 - - WNW 1024,1 21 0 0,0
16.12.2017 22:00:00 3,0 2,1 - - 15 8 - - NW 1023,7 10 0 0,0
16.12.2017 21:00:00 4,0 3,3 - - 13 7 - - WNW 1023,0 10 0 0,0
16.12.2017 20:00:00 2,3 1,3 - - 9 5 - - WNW 1022,5 10 0 0,0
16.12.2017 19:00:00 3,9 2,4 - - 15 8 - - W 1022,1 10 0 0,0
16.12.2017 18:00:00 4,3 3,0 - - 13 7 - - W 1021,7 10 0 0,0
16.12.2017 17:00:00 5,5 3,5 - - 18 10 - - WNW 1021,5 10 0 0,0
16.12.2017 16:00:00 6,5 3,4 - - 31 17 - - WNW 1020,9 10 0 0,0
16.12.2017 15:00:00 7,1 2,4 - - 24 13 - - WNW 1020,5 10 36 0,0
16.12.2017 14:00:00 7,4 2,7 - - 24 13 - - NW 1020,3 24 30 0,0
16.12.2017 13:00:00 6,9 2,9 - - 21 11 - - NW 1020,7 10 42 0,0
16.12.2017 12:00:00 5,9 1,6 - - 16 9 - - NW 1020,7 10 54 0,0
16.12.2017 11:00:00 4,9 1,4 - - 13 7 - - WNW 1020,5 10 60 0,0
16.12.2017 10:00:00 3,2 0,9 - - 15 8 - - WNW 1020,2 10 42 0,0
16.12.2017 09:00:00 0,3 -0,6 5,7 7,7 9 5 - - WNW 1019,3 10 0 0,0
16.12.2017 08:00:00 -0,3 -1,2 - - 5 3 - - NW 1018,4 10 0 0,0
16.12.2017 07:00:00 -0,8 -1,7 - - 8 4 - - NNO 1017,7 10 0 0,0
16.12.2017 06:00:00 -0,3 -1,1 - - 5 3 - - NNW 1016,8 30 0 0,0
16.12.2017 05:00:00 -1,3 -2,6 - - 11 6 - - NNW 1016,1 30 0 0,0
16.12.2017 04:00:00 -1,4 -2,9 - - 9 5 - - NNW 1015,4 35 0 0,0
16.12.2017 03:00:00 -1,0 -2,4 - - 11 6 - - NNW 1015,1 27 0 0,0
16.12.2017 02:00:00 0,1 -1,2 - - 4 2 - - NNW 1014,5 19 0 0,0
16.12.2017 01:00:00 0,7 -1,0 - - 11 6 - - WNW 1013,9 28 0 0,0
16.12.2017 00:00:00 0,9 -0,9 - - 9 5 - - NW 1013,3 24 - 0,0
15.12.2017 23:00:00 2,2 -0,3 - - 11 6 - - WNW 1012,7 27 0 0,0
15.12.2017 22:00:00 2,7 0,2 - - 16 9 - - NNW 1011,7 10 0 0,0
15.12.2017 21:00:00 3,8 1,1 - - 18 10 - - NNW 1010,6 10 0 0,0
15.12.2017 20:00:00 4,0 1,2 - - 24 13 - - NNW 1009,8 10 0 0,0
15.12.2017 19:00:00 4,0 1,2 - - 21 11 - - NNW 1008,5 10 0 0,0
15.12.2017 18:00:00 4,9 1,1 - - 26 14 - - N 1007,2 10 0 0,0
15.12.2017 17:00:00 3,7 0,7 - - 21 11 - - NNW 1006,4 10 0 0,0
15.12.2017 16:00:00 5,2 1,0 - - 18 10 - - NNW 1005,1 10 54 0,0
15.12.2017 15:00:00 6,4 1,2 - - 26 14 - - NNW 1003,8 10 60 0,0
15.12.2017 14:00:00 6,7 1,4 - - 29 16 46 25 NNW 1002,7 10 60 0,0
15.12.2017 13:00:00 6,5 1,6 - - 29 16 - - NNW 1001,7 10 60 0,0
15.12.2017 12:00:00 6,0 1,6 - - 29 16 - - NNW 1001,1 10 60 0,0
15.12.2017 11:00:00 5,1 1,6 - - 29 16 50 27 NNW 1000,5 10 60 0,0
15.12.2017 10:00:00 4,2 1,5 - - 29 16 - - NNW 999,0 10 18 0,0
15.12.2017 09:00:00 4,0 1,7 5,7 7,9 28 15 46 25 NNW 997,3 10 0 0,0
15.12.2017 08:00:00 4,3 2,1 - - 28 15 57 31 NNW 995,2 10 0 0,0
15.12.2017 07:00:00 5,5 3,4 - - 31 17 52 28 WNW 992,7 10 0 0,0
15.12.2017 06:00:00 5,6 3,7 - - 24 13 - - WNW 992,2 10 0 0,2
15.12.2017 05:00:00 4,7 3,3 - - 18 10 - - W 992,2 30 0 0,0
15.12.2017 04:00:00 4,2 2,8 - - 15 8 - - W 992,6 27 0 0,0
15.12.2017 03:00:00 4,4 2,5 - - 16 9 - - W 993,0 35 0 0,0
15.12.2017 02:00:00 2,5 1,1 - - 9 5 - - WZW 992,9 30 0 0,0
15.12.2017 01:00:00 2,5 1,0 - - 11 6 - - W 993,1 30 0 0,2
15.12.2017 00:00:00 3,0 1,9 - - 13 7 - - WNW 992,6 30 - 0,0
14.12.2017 23:00:00 4,2 3,0 - - 22 12 - - WNW 991,8 28 0 0,0
14.12.2017 22:00:00 4,6 3,1 - - 16 9 - - WNW 990,9 10 0 0,0
14.12.2017 21:00:00 3,8 2,4 - - 8 4 - - WNW 989,9 10 0 0,8
14.12.2017 20:00:00 4,5 3,5 - - 15 8 - - W 989,5 10 0 0,0
14.12.2017 19:00:00 5,6 3,2 - - 24 13 - - WZW 989,6 10 0 0,0
14.12.2017 18:00:00 4,2 2,3 - - 13 7 - - ZW 989,8 10 0 0,0
14.12.2017 17:00:00 2,6 0,9 - - 9 5 - - WZW 990,0 10 0 0,0
14.12.2017 16:00:00 3,2 1,0 - - 9 5 - - W 990,4 10 30 0,0
14.12.2017 15:00:00 4,2 2,5 - - 13 7 - - W 990,7 10 12 0,2
14.12.2017 14:00:00 3,8 2,2 - - 22 12 - - WNW 991,9 7 0 0,8
14.12.2017 13:00:00 5,5 1,9 - - 29 16 50 27 W 992,5 10 24 0,2
14.12.2017 12:00:00 7,2 3,5 - - 22 12 - - W 993,4 10 30 0,0
14.12.2017 11:00:00 5,4 3,2 - - 18 10 - - WZW 993,9 10 0 0,0
14.12.2017 10:00:00 4,5 2,6 - - 16 9 54 29 W 994,9 10 0 0,2
14.12.2017 09:00:00 5,2 1,4 6,0 7,9 34 18 50 27 W 995,2 10 0 0,0
14.12.2017 08:00:00 5,0 1,1 - - 37 20 54 29 W 995,1 10 0 0,0
14.12.2017 07:00:00 4,7 1,6 - - 24 13 - - W 995,3 10 0 0,0
14.12.2017 06:00:00 5,1 2,5 - - 24 13 70 38 WZW 995,7 10 0 0,2
14.12.2017 05:00:00 5,9 2,6 - - 29 16 - - W 996,0 28 0 0,0
14.12.2017 04:00:00 5,4 2,1 - - 31 17 48 26 W 996,8 30 0 0,0
14.12.2017 03:00:00 5,2 2,3 - - 35 19 54 29 W 997,4 30 0 0,0
14.12.2017 02:00:00 4,9 1,9 - - 34 18 55 30 W 997,2 10 0 0,0
14.12.2017 01:00:00 4,8 2,0 - - 34 18 48 26 W 996,9 10 0 0,2
14.12.2017 00:00:00 4,2 0,7 - - 26 14 50 27 W 996,3 10 - 0,0
13.12.2017 23:00:00 4,5 0,8 - - 29 16 46 25 WNW 995,8 10 0 0,0
13.12.2017 22:00:00 5,0 1,6 - - 31 17 52 28 W 994,4 10 0 0,0
13.12.2017 21:00:00 4,8 2,1 - - 35 19 61 33 W 993,1 10 0 0,6
13.12.2017 20:00:00 5,7 3,5 - - 24 13 52 28 W 992,9 10 0 0,4
13.12.2017 19:00:00 6,0 3,8 - - 18 10 - - WZW 994,0 10 0 0,0
13.12.2017 18:00:00 4,0 2,2 - - 15 8 - - W 994,5 10 0 0,0
13.12.2017 17:00:00 5,1 2,5 - - 18 10 - - W 994,8 10 0 0,0
13.12.2017 16:00:00 6,8 3,4 - - 34 18 72 39 WNW 994,8 10 0 1,6
13.12.2017 15:00:00 9,7 7,4 - - 29 16 52 28 W 993,8 10 0 0,0
13.12.2017 14:00:00 10,4 8,7 - - 24 13 - - WZW 993,9 10 0 0,2
13.12.2017 13:00:00 10,3 8,1 - - 29 16 48 26 WZW 995,7 10 0 0,0
13.12.2017 12:00:00 9,5 8,3 - - 24 13 - - WZW 997,5 10 0 0,4
13.12.2017 11:00:00 9,2 7,3 - - 15 8 - - WZW 999,2 22 0 0,0
13.12.2017 10:00:00 8,2 6,9 - - 11 6 - - WZW 1000,7 10 0 0,2
13.12.2017 09:00:00 8,0 6,9 5,5 8,0 15 8 - - WZW 1001,5 10 0 0,0
13.12.2017 08:00:00 7,7 6,7 - - 13 7 - - ZW 1002,4 10 0 0,2
13.12.2017 07:00:00 6,9 5,9 - - 15 8 - - WZW 1002,9 10 0 0,2
13.12.2017 06:00:00 6,4 5,3 - - 9 5 - - W 1003,0 10 0 0,0
13.12.2017 05:00:00 6,3 4,9 - - 8 4 - - W 1003,0 20 0 0,0
13.12.2017 04:00:00 7,6 5,8 - - 18 10 - - WNW 1002,9 18 0 0,0
13.12.2017 03:00:00 8,5 6,4 - - 15 8 - - WNW 1002,8 21 0 0,0
13.12.2017 02:00:00 9,8 9,0 - - 22 12 46 25 W 1002,7 27 0 0,8
13.12.2017 01:00:00 9,8 9,3 - - 26 14 - - ZW 1003,1 13 0 0,6
13.12.2017 00:00:00 8,9 8,4 - - 21 11 - - ZW 1004,2 4,4 - 0,6
12.12.2017 23:00:00 8,4 7,7 - - 21 11 - - ZZW 1005,5 5 0 0,4
12.12.2017 22:00:00 7,9 7,2 - - 16 9 - - ZW 1006,6 8 0 1,6
12.12.2017 21:00:00 7,9 5,0 - - 21 11 - - ZW 1007,8 10 0 0,0
12.12.2017 20:00:00 7,1 4,5 - - 11 6 - - ZZW 1008,5 10 0 0,0

tt = temperatuur
td = dauwpunt
tt -20cm = temperatuur -20cm
tt -100cm = temperatuur -100cm
ff = windsnelheid
fx = windstoten
dd = windrichting
ppp = luchtdruk
vv = zicht
sd = Zonneschijnduur
rr = neerslag

Weerstations in de omgeving